| time (UTC) | temp C | wind direction | speed KPH | gust KPH | rain 1hr cm | rain 24hr cm | rain mn cm | humidity % | barometer mb |
| 20260505100010 | 17 | 287 | 0.0 | 0.0 | 0.00 | 0.00 | 0.00 | 84 | 1006.7 |
| 20260505094508 | 17 | 301 | 0.0 | 1.6 | 0.00 | 0.00 | 0.00 | 80 | 1006.3 |
| 20260505093005 | 17 | 275 | 0.0 | 3.2 | 0.00 | 0.00 | 0.00 | 77 | 1005.8 |
| 20260505091505 | 17 | 170 | 1.6 | 4.8 | 0.00 | 0.00 | 0.00 | 77 | 1005.5 |
| 20260505090005 | 17 | 189 | 1.6 | 6.4 | 0.00 | 0.00 | 0.00 | 76 | 1005.3 |
| 20260505084507 | 17 | 195 | 0.0 | 6.4 | 0.00 | 0.00 | 0.00 | 75 | 1005.1 |
| 20260505083008 | 17 | 189 | 1.6 | 4.8 | 0.00 | 0.00 | 0.00 | 76 | 1005.3 |
| 20260505081600 | 18 | 196 | 0.0 | 8.0 | 0.00 | 0.00 | 0.00 | 73 | 1005.0 |
| 20260505081502 | 18 | 284 | 0.0 | 8.0 | 0.00 | 0.00 | 0.00 | 73 | 1005.1 |
| 20260505080059 | 18 | 179 | 3.2 | 6.4 | 0.00 | 0.00 | 0.00 | 74 | 1005.5 |
| 20260505074557 | 17 | 161 | 3.2 | 6.4 | 0.00 | 0.00 | 0.00 | 75 | 1005.8 |
| 20260505073056 | 17 | 213 | 0.0 | 6.4 | 0.00 | 0.00 | 0.00 | 75 | 1006.1 |
| 20260505071553 | 17 | 173 | 3.2 | 6.4 | 0.00 | 0.00 | 0.00 | 74 | 1006.2 |
| 20260505070053 | 17 | 177 | 1.6 | 8.0 | 0.00 | 0.00 | 0.00 | 73 | 1006.3 |
| 20260505064600 | 17 | 158 | 1.6 | 8.0 | 0.00 | 0.00 | 0.00 | 74 | 1006.5 |
| 20260505063053 | 17 | 205 | 1.6 | 8.0 | 0.00 | 0.00 | 0.00 | 74 | 1006.7 |
| 20260505061548 | 17 | 189 | 1.6 | 6.4 | 0.00 | 0.00 | 0.00 | 74 | 1006.8 |
| 20260505060046 | 17 | 213 | 3.2 | 6.4 | 0.00 | 0.00 | 0.00 | 74 | 1007.2 |
| 20260505054550 | 17 | 202 | 3.2 | 8.0 | 0.00 | 0.00 | 0.00 | 74 | 1007.5 |
| 20260505053040 | 17 | 164 | 0.0 | 0.0 | 0.00 | 0.00 | 0.00 | 75 | 1007.8 |
| 20260505051537 | 17 | 194 | 1.6 | 4.8 | 0.00 | 0.00 | 0.00 | 74 | 1007.8 |
| 20260505041535 | 18 | 194 | 0.0 | 3.2 | 0.00 | 0.00 | 0.00 | 73 | 1008.0 |
| 20260505040034 | 18 | 181 | 0.0 | 8.0 | 0.00 | 0.00 | 0.00 | 71 | 1008.0 |
| 20260505034536 | 19 | 161 | 0.0 | 6.4 | 0.00 | 0.00 | 0.00 | 70 | 1008.1 |
| 20260505033035 | 19 | 211 | 1.6 | 3.2 | 0.00 | 0.00 | 0.00 | 70 | 1008.2 |
| 20260505031531 | 19 | 196 | 1.6 | 8.0 | 0.00 | 0.00 | 0.00 | 69 | 1008.1 |
| 20260505030031 | 20 | 196 | 1.6 | 9.7 | 0.00 | 0.00 | 0.00 | 68 | 1007.9 |
| 20260505024540 | 20 | 178 | 1.6 | 9.7 | 0.00 | 0.00 | 0.00 | 68 | 1007.9 |
| 20260505023030 | 20 | 191 | 4.8 | 9.7 | 0.00 | 0.00 | 0.00 | 68 | 1007.7 |
| 20260505021536 | 20 | 175 | 3.2 | 8.0 | 0.00 | 0.00 | 0.00 | 68 | 1007.5 |
| 20260505020031 | 20 | 190 | 1.6 | 4.8 | 0.00 | 0.00 | 0.00 | 67 | 1007.3 |
| 20260505014536 | 20 | 176 | 1.6 | 9.7 | 0.00 | 0.00 | 0.00 | 66 | 1007.3 |
| 20260505013029 | 20 | 182 | 4.8 | 8.0 | 0.00 | 0.00 | 0.00 | 66 | 1006.9 |
| 20260505011527 | 21 | 180 | 1.6 | 9.7 | 0.00 | 0.00 | 0.00 | 65 | 1006.9 |
| 20260505010026 | 21 | 182 | 4.8 | 11.3 | 0.00 | 0.00 | 0.00 | 63 | 1006.6 |
| 20260505004526 | 22 | 161 | 4.8 | 12.9 | 0.00 | 0.00 | 0.00 | 62 | 1006.7 |
| 20260505003024 | 22 | 196 | 3.2 | 17.7 | 0.00 | 0.00 | 0.00 | 61 | 1006.6 |
| 20260505001524 | 22 | 193 | 6.4 | 20.9 | 0.00 | 0.00 | 0.00 | 60 | 1006.6 |
| 20260505000031 | 22 | 164 | 6.4 | 19.3 | 0.00 | 0.00 | 0.00 | 59 | 1006.6 |
| 20260504234523 | 23 | 233 | 6.4 | 14.5 | 0.00 | 0.00 | 0.00 | 59 | 1006.6 |
| 20260504233022 | 23 | 197 | 11.3 | 22.5 | 0.00 | 0.00 | 0.00 | 56 | 1006.8 |
| 20260504231526 | 24 | 190 | 9.7 | 22.5 | 0.00 | 0.00 | 0.00 | 56 | 1007.1 |
| 20260504230018 | 24 | 223 | 4.8 | 17.7 | 0.00 | 0.00 | 0.00 | 55 | 1007.2 |
| 20260504224522 | 25 | 180 | 8.0 | 22.5 | 0.00 | 0.00 | 0.00 | 53 | 1007.2 |
| 20260504223015 | 25 | 215 | 9.7 | 24.1 | 0.00 | 0.00 | 0.00 | 53 | 1007.1 |
| 20260504221513 | 25 | 187 | 8.0 | 14.5 | 0.00 | 0.00 | 0.00 | 54 | 1007.2 |
| 20260504220017 | 25 | 167 | 6.4 | 27.4 | 0.00 | 0.00 | 0.00 | 53 | 1007.4 |
| 20260504214512 | 25 | 232 | 8.0 | 27.4 | 0.00 | 0.00 | 0.00 | 52 | 1007.4 |
| 20260504213012 | 25 | 192 | 14.5 | 30.6 | 0.00 | 0.00 | 0.00 | 50 | 1007.5 |
| 20260504211513 | 25 | 177 | 8.0 | 30.6 | 0.00 | 0.00 | 0.00 | 53 | 1007.4 |
| 20260504210009 | 26 | 175 | 8.0 | 24.1 | 0.00 | 0.00 | 0.00 | 53 | 1007.5 |
| 20260504204508 | 25 | 211 | 12.9 | 27.4 | 0.00 | 0.00 | 0.00 | 50 | 1007.8 |
| 20260504203015 | 26 | 176 | 11.3 | 24.1 | 0.00 | 0.00 | 0.00 | 53 | 1007.9 |
| 20260504201502 | 25 | 229 | 12.9 | 22.5 | 0.00 | 0.00 | 0.00 | 50 | 1008.2 |
| 20260504200002 | 25 | 215 | 12.9 | 35.4 | 0.00 | 0.00 | 0.00 | 51 | 1008.3 |
| 20260504194610 | 25 | 207 | 9.7 | 27.4 | 0.00 | 0.00 | 0.00 | 52 | 1008.5 |
| 20260504193058 | 25 | 202 | 12.9 | 25.7 | 0.00 | 0.00 | 0.00 | 54 | 1008.6 |
| 20260504191556 | 25 | 259 | 11.3 | 22.5 | 0.00 | 0.00 | 0.00 | 54 | 1008.8 |
| 20260504190122 | 25 | 192 | 9.7 | 25.7 | 0.00 | 0.00 | 0.00 | 53 | 1008.7 |
| 20260504184557 | 25 | 209 | 11.3 | 29.0 | 0.00 | 0.00 | 0.00 | 52 | 1008.9 |
| 20260504183051 | 25 | 229 | 11.3 | 20.9 | 0.00 | 0.00 | 0.00 | 51 | 1009.1 |
| 20260504181553 | 25 | 180 | 9.7 | 22.5 | 0.00 | 0.00 | 0.00 | 54 | 1009.1 |
| 20260504180128 | 25 | 196 | 11.3 | 25.7 | 0.00 | 0.00 | 0.00 | 52 | 1009.2 |
| 20260504174548 | 25 | 234 | 14.5 | 24.1 | 0.00 | 0.00 | 0.00 | 52 | 1009.4 |
| 20260504173056 | 24 | 205 | 12.9 | 22.5 | 0.00 | 0.00 | 0.00 | 55 | 1009.8 |
| 20260504171539 | 24 | 229 | 12.9 | 27.4 | 0.00 | 0.00 | 0.00 | 53 | 1010.1 |